Volver al catálogo

ANOKHIN S.N.

ActivoNavegaciónSSO
NORAD 57193·PAYLOAD·🇷🇺 Russia
Este nombre de satélite aún no ha sido confirmado por fuentes oficiales.

Lanzado Jun 27, 2023 desde Vostochny Cosmodrome

Loading…

Próximos Pases (próximas 24 horas)

TLE

ActualizadoSource: Space-Track

Época: Sep 14, 2026, 15:05 UTC

1 57193U 23091AD  26257.62903118  .00011855  00000-0  35890-3 0  9990
2 57193  97.4965 324.4308 0010874 135.9947 224.2163 15.34276274178152

Sigue ANOKHIN S.N. en tiempo real con AllMySat

Download on the App Store